Location: *
(45.1961°N, 1.9694°E)
Time: 09:05:37
(UTC+00:00)

Cosmos 2251 Rocket - Pass Details

Date: 25 August 2019
Orbit: 764 x 792 km, 74.0° (Epoch: 24 September)

Event Time Altitude Azimuth Distance (km) Brightness Sun altitude
Rises 22:23:32 0° 343° (NNW) 3,284 7.9 -30.6°
Reaches altitude 10° 22:26:02 10° 349° (N) 2,355 6.9 -30.8°
Enters shadow 22:30:07 42° 29° (NNE) 1,125 4.5 -31.1°
